Indianapolis, IN

9:30 AM EST on November 20, 2019 (GMT -0500)
Indianapolis Terry

Weather History for KTYQ - June, 2019

Change the Weather History Date:

Thursday, June 6, 2019

  Actual Average (WUND) Record (WUND)
Temperature  
Mean Temperature 70 °F -  
Max Temperature 81 °F - - (-1)
Min Temperature 59 °F - - (-1)
Cooling Degree Days 5    
Growing Degree Days 20 (Base 50)    
Moisture  
Dew Point 65 °F    
Average Humidity 81    
Maximum Humidity 100    
Minimum Humidity 56    
Precipitation  
Precipitation 0.01 in - - ()
Sea Level Pressure  
Sea Level Pressure 29.86 in    
Wind  
Wind Speed 2 mph ()    
Max Wind Speed 9 mph    
Max Gust Speed -    
Visibility 8.2 miles    
Events Fog    
Averages and records for this station are not official NWS values.
T = Trace of Precipitation, MM = Missing Value Source: Averaged Metar Reports

Daily Weather History Graph

Daily Weather History Graph

Search for Another Location

Airport or City:

Astronomy

Jun. 06, 2019 Rise Set
Actual Time 6:16 AM EDT 9:11 PM EDT
Civil Twilight 5:44 AM EDT 9:43 PM EDT
Nautical Twilight 5:03 AM EDT 10:24 PM EDT
Astronomical Twilight 4:15 AM EDT 11:12 PM EDT
Moon 9:24 AM EDT (6/6) No Moon Set
Length of Visible Light 15h 59m
Length of Day
14h 54m
Waxing Crescent, 13% of the Moon is Illuminated
Jun 6
Waxing Crescent
Jun 10
First Quarter
Jun 17
Full
Jun 25
Last Quarter
Jul 2
New

Hourly Weather History & Observations

Time (EDT) Temp. Heat Index Dew Point Humidity Pressure Visibility Wind Dir Wind Speed Gust Speed Precip Events Conditions
12:15 AM 65.5 °F - 65.5 °F 100% 29.84 in 10.0 mi Calm Calm - N/A   Clear
12:35 AM 65.3 °F - 65.3 °F 100% 29.83 in 10.0 mi Calm Calm - N/A   Clear
12:55 AM 64.4 °F - 64.4 °F 100% 29.83 in 10.0 mi Calm Calm - N/A   Clear
1:15 AM 64.0 °F - 64.0 °F 100% 29.83 in 10.0 mi Calm Calm - N/A   Clear
1:35 AM 63.7 °F - 63.7 °F 100% 29.83 in 7.0 mi Calm Calm - N/A   Clear
1:55 AM 63.5 °F - 63.5 °F 100% 29.83 in 7.0 mi Calm Calm - N/A   Clear
2:15 AM 63.5 °F - 63.5 °F 100% 29.83 in 7.0 mi Calm Calm - N/A   Clear
2:35 AM 63.1 °F - 63.1 °F 100% 29.83 in 7.0 mi Calm Calm - N/A   Clear
2:55 AM 63.1 °F - 63.1 °F 100% 29.83 in 7.0 mi Calm Calm - N/A   Clear
3:15 AM 62.2 °F - 62.2 °F 100% 29.83 in 5.0 mi Calm Calm - N/A   Clear
3:35 AM 61.9 °F - 61.9 °F 100% 29.83 in 3.0 mi Calm Calm - N/A   Clear
3:55 AM 61.9 °F - 61.9 °F 100% 29.83 in 2.5 mi Calm Calm - N/A   Clear
4:15 AM 61.9 °F - 61.9 °F 100% 29.82 in 3.0 mi Calm Calm - N/A   Clear
4:35 AM 61.9 °F - 61.9 °F 100% 29.82 in 4.0 mi Calm Calm - N/A   Clear
4:55 AM 62.2 °F - 62.2 °F 100% 29.82 in 4.0 mi Calm Calm - N/A   Clear
5:15 AM 62.6 °F - 62.6 °F 100% 29.82 in 5.0 mi NNE 3.5 mph - N/A   Clear
5:35 AM 62.6 °F - 62.6 °F 100% 29.82 in 5.0 mi Calm Calm - N/A   Clear
5:55 AM 62.8 °F - 62.8 °F 100% 29.83 in 7.0 mi Calm Calm - N/A   Clear
6:15 AM 61.2 °F - 61.2 °F 100% 29.83 in 3.0 mi Calm Calm - N/A   Clear
6:35 AM 61.0 °F - 61.0 °F 100% 29.84 in 1.0 mi Calm Calm - N/A   Mostly Cloudy
6:55 AM 59.7 °F - 59.7 °F 100% 29.85 in 0.2 mi Calm Calm - N/A Fog Fog
7:15 AM 61.2 °F - 61.2 °F 100% 29.86 in 0.5 mi Calm Calm - N/A Fog Fog
7:35 AM 62.8 °F - 62.8 °F 100% 29.87 in 2.0 mi Calm Calm - N/A   Clear
7:55 AM 64.2 °F - 64.2 °F 100% 29.87 in 3.0 mi Calm Calm - N/A   Clear
8:15 AM 66.0 °F - 66.0 °F 100% 29.87 in 5.0 mi Calm Calm - N/A   Clear
8:35 AM 67.3 °F - 67.3 °F 100% 29.88 in 7.0 mi East 4.6 mph - N/A   Clear
8:55 AM 68.9 °F - 68.5 °F 99% 29.88 in 7.0 mi ENE 6.9 mph - N/A   Clear
9:15 AM 70.0 °F - 68.7 °F 96% 29.88 in 10.0 mi ENE 4.6 mph - N/A   Clear
9:35 AM 70.7 °F - 68.2 °F 92% 29.88 in 10.0 mi ENE 5.8 mph - N/A   Clear
9:55 AM 71.4 °F - 67.5 °F 87% 29.88 in 10.0 mi Calm Calm - N/A   Clear
10:15 AM 72.7 °F - 68.7 °F 87% 29.89 in 10.0 mi Calm Calm - N/A   Clear
10:35 AM 73.6 °F - 68.0 °F 83% 29.89 in 10.0 mi East 3.5 mph - N/A   Clear
10:55 AM 74.3 °F - 68.5 °F 82% 29.89 in 10.0 mi ESE 3.5 mph - N/A   Clear
11:15 AM 75.4 °F - 68.4 °F 79% 29.89 in 10.0 mi East 3.5 mph - N/A   Clear
11:35 AM 75.4 °F - 68.2 °F 78% 29.90 in 10.0 mi East 4.6 mph - 0.01 in   Clear
11:55 AM 76.1 °F - 69.1 °F 79% 29.90 in 10.0 mi Calm Calm - 0.01 in   Clear
12:15 PM 76.5 °F - 68.5 °F 76% 29.89 in 10.0 mi NE 5.8 mph - N/A   Clear
12:35 PM 77.5 °F - 68.4 °F 73% 29.89 in 10.0 mi ENE 5.8 mph - N/A   Scattered Clouds
12:55 PM 77.5 °F - 66.2 °F 68% 29.89 in 10.0 mi North 3.5 mph - N/A   Scattered Clouds
1:15 PM 77.7 °F - 67.8 °F 71% 29.89 in 10.0 mi East 4.6 mph - N/A   Clear
1:35 PM 78.8 °F - 67.1 °F 67% 29.89 in 10.0 mi ENE 6.9 mph - N/A   Scattered Clouds
1:55 PM 79.7 °F - 67.5 °F 66% 29.89 in 10.0 mi East 5.8 mph - N/A   Clear
2:15 PM 79.2 °F - 66.2 °F 64% 29.88 in 10.0 mi Calm Calm - N/A   Clear
2:35 PM 79.9 °F - 65.1 °F 61% 29.88 in 10.0 mi ENE 5.8 mph - N/A   Clear
2:55 PM 79.7 °F - 66.0 °F 63% 29.88 in 10.0 mi East 6.9 mph - N/A   Clear
3:15 PM 80.4 °F 82.4 °F 65.7 °F 61% 29.88 in 10.0 mi East 6.9 mph - N/A   Scattered Clouds
3:35 PM 80.1 °F 82.0 °F 65.7 °F 61% 29.87 in 10.0 mi NE 6.9 mph - N/A   Clear
3:55 PM 80.8 °F 82.9 °F 66.4 °F 61% 29.87 in 10.0 mi NE 5.8 mph - N/A   Scattered Clouds
4:15 PM 80.1 °F 81.8 °F 64.4 °F 59% 29.86 in 10.0 mi NNE 4.6 mph - N/A   Scattered Clouds
4:35 PM 80.6 °F 82.4 °F 64.9 °F 59% 29.86 in 10.0 mi NE 4.6 mph - N/A   Clear
4:55 PM 81.9 °F 83.7 °F 65.1 °F 57% 29.86 in 10.0 mi East 5.8 mph - N/A   Clear
5:15 PM 81.7 °F 83.3 °F 64.6 °F 56% 29.86 in 10.0 mi NE 8.1 mph - N/A   Clear
5:35 PM 80.2 °F 81.9 °F 64.0 °F 58% 29.85 in 10.0 mi NE 6.9 mph - N/A   Clear
5:55 PM 79.9 °F - 64.2 °F 59% 29.85 in 10.0 mi NE 6.9 mph - N/A   Clear
6:15 PM 80.1 °F 81.5 °F 63.3 °F 56% 29.85 in 10.0 mi NE 8.1 mph - N/A   Clear
6:35 PM 80.6 °F 82.0 °F 63.7 °F 56% 29.85 in 10.0 mi NE 8.1 mph - N/A   Clear
6:55 PM 79.9 °F - 63.0 °F 56% 29.85 in 10.0 mi ENE 4.6 mph - N/A   Clear
7:15 PM 79.5 °F - 63.1 °F 57% 29.85 in 10.0 mi ENE 5.8 mph - N/A   Clear
7:35 PM 79.2 °F - 64.4 °F 60% 29.85 in 10.0 mi ENE 8.1 mph - N/A   Clear
7:55 PM 78.8 °F - 65.5 °F 64% 29.85 in 10.0 mi NE 6.9 mph - N/A   Clear
8:15 PM 77.7 °F - 65.5 °F 66% 29.86 in 10.0 mi ENE 5.8 mph - N/A   Clear
8:35 PM 76.8 °F - 66.0 °F 69% 29.86 in 10.0 mi ENE 4.6 mph - N/A   Clear
8:55 PM 76.3 °F - 65.5 °F 69% 29.86 in 10.0 mi ENE 5.8 mph - N/A   Clear
9:15 PM 75.6 °F - 65.5 °F 71% 29.86 in 10.0 mi ENE 5.8 mph - N/A   Clear
9:35 PM 74.5 °F - 65.7 °F 74% 29.86 in 10.0 mi ENE 5.8 mph - N/A   Clear
9:55 PM 73.2 °F - 66.4 °F 79% 29.87 in 10.0 mi NE 6.9 mph - N/A   Clear
10:15 PM 73.4 °F - 65.7 °F 77% 29.87 in 10.0 mi ENE 9.2 mph - N/A   Clear
10:35 PM 72.9 °F - 65.8 °F 79% 29.88 in 10.0 mi ENE 6.9 mph - N/A   Clear
10:55 PM 72.3 °F - 66.2 °F 81% 29.89 in 10.0 mi ENE 8.1 mph - N/A   Clear
11:15 PM 71.6 °F - 65.7 °F 81% 29.90 in 10.0 mi ENE 9.2 mph - N/A   Clear
11:35 PM 70.9 °F - 65.7 °F 83% 29.90 in 10.0 mi ENE 6.9 mph - N/A   Clear
11:55 PM 69.8 °F - 65.8 °F 87% 29.90 in 10.0 mi ENE 8.1 mph - N/A   Clear